This demonstration page uses our WeatherBlox Daily Observations layout. Learn more.

Left ArrowRight Arrow

36.17497, -115.13722

Hourly Observations for June 25, 2021

Temp ( °F °C ) Dew Point ( °F °C ) Humidity (%) Winds ( mph kmh ) Pressure ( in mb ) Visibility ( mi km ) Precip ( " mm )
12:53 am 00:53 Clear 83 28.3 53 11.7 36 36 N N/A 29.81 1009 10 16 N/A
1:53 am 01:53 Clear 80 26.7 54 12.2 41 41 W 3 6 29.82 1010 10 16 N/A
2:53 am 02:53 Clear 78 25.6 53 11.7 42 42 NNW 6 9 29.83 1010 10 16 N/A
3:53 am 03:53 Clear 76 24.4 51 10.6 42 42 WNW 6 9 29.83 1010 10 16 N/A
4:53 am 04:53 Clear 76 24.4 47 8.3 36 36 NW 7 11 29.84 1010 10 16 N/A
5:53 am 05:53 Sunny 77 25 45 7.2 32 32 WNW 5 7 29.85 1011 10 16 N/A
6:53 am 06:53 Sunny 79 26.1 49 9.4 35 35 N N/A 29.85 1011 10 16 N/A
7:53 am 07:53 Sunny 83 28.3 51 10.6 33 33 E 5 7 29.85 1011 10 16 N/A
8:53 am 08:53 Sunny 86 30 50 10 29 29 ESE 3 6 29.86 1011 10 16 N/A
9:53 am 09:53 Sunny 91 32.8 49 9.4 24 24 VRB 6 9 29.84 1011 10 16 N/A
10:53 am 10:53 Sunny 93 33.9 48 8.9 21 21 E 5 7 29.84 1010 10 16 N/A
11:53 am 11:53 Sunny 96 35.6 44 6.7 17 17 S 3 6 29.82 1010 10 16 N/A
12:53 pm 12:53 Sunny 97 36.1 40 4.4 14 14 SSW 5 7 29.80 1009 10 16 N/A
1:53 pm 13:53 Sunny 99 37.2 28 -2.2 8 8 VRB 3 6 29.78 1009 10 16 N/A
2:53 pm 14:53 Sunny 101 38.3 30 -1.1 8 8 E 7 11 29.75 1008 10 16 N/A
3:53 pm 15:53 Sunny 101 38.3 32 undefined 9 9 VRB 5 7 29.73 1007 10 16 N/A
4:53 pm 16:53 Sunny 101 38.3 31 -0.6 8 8 NW 6 9 29.72 1006 10 16 N/A
5:53 pm 17:53 Sunny 100 37.8 32 undefined 9 9 SW 3 6 29.70 1006 10 16 N/A
6:53 pm 18:53 Sunny 100 37.8 31 -0.6 9 9 W 3 6 29.69 1006 10 16 N/A
7:53 pm 19:53 Sunny 99 37.2 30 -1.1 9 9 SSW 3 6 29.70 1006 10 16 N/A
8:53 pm 20:53 Clear 97 36.1 31 -0.6 10 10 SSE 5 7 29.70 1006 10 16 N/A
9:53 pm 21:53 Clear 94 34.4 35 1.7 13 13 WSW 6 9 29.72 1007 10 16 N/A
10:53 pm 22:53 Clear 91 32.8 36 2.2 14 14 NW 5 7 29.72 1007 10 16 N/A
11:53 pm 23:53 Clear 86 30 35 1.7 16 16 NNW 8 13 29.74 1007 10 16 N/A

Powered by AerisWeather